GEFSMA_prec_meanprecacc_048.txt.gz
Total_Precipitation_Accumulation
0.04 0.03 0.01 0.00 0.00 0.00 0.00 0.00 0.00 0.00 0.00 0.00 0.00 0.01 0.03 0.06 0.15 0.14 0.17 0.21 0.24 0.27 0.25 0.21 0.14 0.07 0.05 0.06 0.09 0.14 0.18 0.26 0.33 0.35 0.29 0.23 0.16 0.11 0.06 0.05 0.05 0.06 0.05
0.05 0.04 0.02 0.01 0.01 0.00 0.00 0.00 0.00 0.00 0.00 0.00 0.00 0.00 0.00 0.03 0.09 0.11 0.15 0.25 0.35 0.31 0.35 0.37 0.29 0.19 0.15 0.13 0.13 0.16 0.18 0.20 0.24 0.28 0.28 0.28 0.24 0.20 0.16 0.14 0.14 0.11 0.08
0.08 0.07 0.06 0.04 0.02 0.01 0.00 0.00 0.00 0.00 0.00 0.00 0.00 0.00 0.00 0.00 0.01 0.02 0.03 0.08 0.20 0.32 0.40 0.41 0.36 0.30 0.24 0.18 0.12 0.11 0.13 0.14 0.16 0.20 0.22 0.23 0.22 0.22 0.20 0.20 0.22 0.20 0.19
0.17 0.16 0.14 0.11 0.07 0.04 0.02 0.02 0.01 0.00 0.00 0.00 0.00 0.00 0.00 0.00 0.00 0.00 0.01 0.02 0.07 0.15 0.28 0.29 0.28 0.30 0.26 0.21 0.14 0.07 0.07 0.08 0.08 0.10 0.14 0.15 0.14 0.15 0.15 0.19 0.23 0.24 0.24
0.37 0.36 0.34 0.30 0.21 0.11 0.07 0.04 0.02 0.01 0.00 0.01 0.00 0.00 0.00 0.00 0.00 0.00 0.01 0.01 0.02 0.05 0.10 0.09 0.09 0.11 0.15 0.17 0.16 0.10 0.06 0.05 0.06 0.07 0.09 0.09 0.07 0.07 0.09 0.13 0.15 0.18 0.20
0.74 0.76 0.69 0.65 0.51 0.32 0.22 0.13 0.11 0.08 0.05 0.03 0.01 0.01 0.00 0.00 0.00 0.00 0.01 0.01 0.01 0.01 0.02 0.02 0.05 0.04 0.04 0.07 0.08 0.08 0.10 0.08 0.06 0.05 0.05 0.05 0.05 0.04 0.05 0.08 0.10 0.12 0.16
1.14 1.22 1.13 1.04 0.85 0.67 0.55 0.46 0.49 0.46 0.29 0.10 0.09 0.08 0.03 0.01 0.01 0.01 0.01 0.01 0.02 0.02 0.01 0.01 0.02 0.04 0.03 0.01 0.02 0.05 0.10 0.13 0.12 0.08 0.05 0.04 0.03 0.03 0.03 0.04 0.07 0.10 0.12
1.16 1.23 1.33 1.24 1.04 0.95 0.97 0.93 1.02 1.03 0.68 0.32 0.29 0.32 0.20 0.12 0.04 0.02 0.01 0.01 0.02 0.04 0.03 0.01 0.00 0.01 0.02 0.02 0.01 0.02 0.04 0.08 0.11 0.08 0.05 0.04 0.03 0.02 0.02 0.02 0.03 0.06 0.09
1.16 1.20 1.30 1.32 1.18 1.11 1.14 1.18 1.33 1.52 1.23 0.81 0.56 0.59 0.49 0.44 0.26 0.07 0.02 0.03 0.03 0.03 0.04 0.03 0.02 0.01 0.01 0.01 0.01 0.00 0.00 0.02 0.05 0.04 0.04 0.04 0.05 0.04 0.03 0.04 0.05 0.07 0.09
1.08 1.10 1.18 1.25 1.27 1.19 1.24 1.23 1.20 1.48 1.59 1.28 1.02 0.75 0.57 0.48 0.41 0.28 0.10 0.04 0.05 0.04 0.04 0.04 0.03 0.02 0.01 0.01 0.01 0.00 0.00 0.01 0.02 0.03 0.03 0.05 0.06 0.08 0.07 0.09 0.10 0.10 0.09
1.18 1.16 1.24 1.25 1.19 1.18 1.22 1.39 1.44 1.57 1.65 1.52 1.34 1.16 0.99 0.78 0.50 0.46 0.40 0.18 0.07 0.04 0.03 0.02 0.04 0.03 0.02 0.02 0.03 0.01 0.01 0.01 0.01 0.03 0.04 0.03 0.05 0.06 0.08 0.10 0.10 0.10 0.09
1.26 1.30 1.32 1.24 1.13 1.11 1.17 1.31 1.46 1.56 1.70 1.69 1.44 1.22 1.13 1.01 0.90 0.75 0.56 0.42 0.24 0.08 0.04 0.03 0.02 0.02 0.03 0.03 0.03 0.04 0.01 0.00 0.01 0.02 0.03 0.04 0.03 0.03 0.04 0.07 0.08 0.08 0.08
1.13 1.16 1.24 1.32 1.30 1.24 1.27 1.31 1.40 1.36 1.46 1.63 1.47 1.26 1.13 0.96 0.91 0.90 0.75 0.56 0.42 0.18 0.07 0.03 0.02 0.02 0.02 0.02 0.03 0.06 0.01 0.01 0.01 0.02 0.03 0.03 0.03 0.02 0.02 0.03 0.04 0.04 0.04
1.02 0.99 0.99 1.07 1.20 1.24 1.15 1.10 1.03 1.01 1.10 1.25 1.26 1.30 1.29 1.09 0.91 0.80 0.74 0.66 0.52 0.41 0.25 0.13 0.05 0.03 0.02 0.02 0.03 0.04 0.01 0.02 0.02 0.02 0.02 0.02 0.02 0.02 0.02 0.02 0.02 0.02 0.02
0.72 0.70 0.71 0.72 0.77 0.80 0.75 0.75 0.78 0.80 0.81 0.94 1.06 1.13 1.22 1.26 1.13 0.92 0.81 0.72 0.64 0.57 0.51 0.41 0.20 0.07 0.06 0.04 0.03 0.02 0.01 0.02 0.03 0.03 0.02 0.02 0.02 0.02 0.02 0.02 0.01 0.01 0.01
0.54 0.52 0.50 0.46 0.44 0.42 0.43 0.49 0.55 0.61 0.62 0.70 0.84 0.91 0.95 1.01 1.14 1.09 0.93 0.85 0.74 0.62 0.53 0.43 0.36 0.18 0.15 0.10 0.07 0.04 0.03 0.03 0.03 0.02 0.02 0.02 0.02 0.01 0.01 0.01 0.01 0.01 0.01
0.52 0.47 0.43 0.42 0.46 0.44 0.40 0.42 0.41 0.40 0.41 0.45 0.52 0.60 0.71 0.90 1.13 1.16 1.09 0.96 0.86 0.75 0.61 0.50 0.37 0.22 0.22 0.20 0.16 0.09 0.04 0.03 0.03 0.02 0.02 0.02 0.01 0.01 0.01 0.01 0.01 0.01 0.01
0.36 0.36 0.38 0.36 0.36 0.39 0.39 0.42 0.43 0.41 0.39 0.38 0.38 0.42 0.54 0.78 1.04 1.18 1.24 1.17 1.03 0.90 0.85 0.75 0.52 0.30 0.26 0.30 0.33 0.26 0.15 0.09 0.07 0.07 0.07 0.05 0.03 0.02 0.02 0.02 0.01 0.02 0.02
0.31 0.30 0.37 0.37 0.37 0.39 0.39 0.41 0.42 0.42 0.42 0.43 0.45 0.45 0.45 0.57 0.78 0.97 1.09 1.14 1.09 1.03 1.03 0.89 0.67 0.50 0.41 0.32 0.29 0.26 0.22 0.21 0.17 0.17 0.22 0.22 0.17 0.12 0.09 0.06 0.05 0.04 0.03
0.40 0.44 0.50 0.52 0.46 0.41 0.41 0.46 0.44 0.41 0.40 0.40 0.41 0.41 0.40 0.40 0.50 0.64 0.79 0.91 1.03 1.14 1.17 1.08 0.88 0.64 0.58 0.42 0.30 0.28 0.28 0.28 0.27 0.24 0.24 0.29 0.30 0.25 0.19 0.17 0.14 0.12 0.11
0.53 0.51 0.56 0.64 0.71 0.66 0.62 0.65 0.55 0.47 0.43 0.39 0.36 0.31 0.30 0.30 0.31 0.38 0.46 0.65 0.92 1.12 1.19 1.19 1.10 0.83 0.62 0.46 0.30 0.29 0.31 0.36 0.36 0.36 0.39 0.36 0.36 0.35 0.35 0.33 0.31 0.27 0.24
0.44 0.44 0.46 0.52 0.61 0.64 0.81 0.72 0.50 0.39 0.38 0.39 0.40 0.34 0.29 0.23 0.21 0.24 0.28 0.34 0.54 0.71 0.87 0.93 0.94 0.82 0.68 0.56 0.46 0.36 0.28 0.26 0.28 0.33 0.38 0.45 0.47 0.46 0.52 0.51 0.53 0.57 0.52
0.38 0.36 0.34 0.35 0.40 0.54 0.58 0.40 0.35 0.31 0.33 0.37 0.40 0.40 0.35 0.27 0.24 0.25 0.24 0.24 0.27 0.33 0.43 0.59 0.69 0.73 0.79 0.66 0.52 0.39 0.31 0.28 0.29 0.31 0.30 0.37 0.44 0.49 0.56 0.58 0.58 0.59 0.56
0.28 0.28 0.34 0.40 0.42 0.42 0.42 0.32 0.28 0.28 0.38 0.40 0.37 0.33 0.35 0.33 0.31 0.32 0.24 0.25 0.27 0.29 0.32 0.30 0.41 0.62 0.74 0.84 0.71 0.54 0.47 0.38 0.32 0.28 0.25 0.26 0.29 0.35 0.38 0.41 0.42 0.39 0.36
0.32 0.35 0.46 0.52 0.45 0.35 0.34 0.32 0.31 0.32 0.40 0.44 0.40 0.34 0.34 0.35 0.48 0.43 0.29 0.31 0.33 0.36 0.35 0.40 0.44 0.48 0.51 0.59 0.63 0.57 0.50 0.42 0.36 0.32 0.31 0.29 0.25 0.22 0.20 0.19 0.20 0.19 0.17
0.29 0.35 0.36 0.33 0.32 0.37 0.40 0.33 0.36 0.39 0.44 0.50 0.47 0.41 0.51 0.46 0.49 0.40 0.28 0.39 0.44 0.38 0.35 0.38 0.37 0.34 0.32 0.35 0.39 0.42 0.49 0.51 0.45 0.39 0.32 0.27 0.27 0.24 0.21 0.16 0.12 0.11 0.08

GEFSMA_prec_meanprecacc_054.txt.gz
Total_Precipitation_Accumulation
0.16 0.12 0.06 0.05 0.04 0.03 0.01 0.01 0.00 0.00 0.00 0.01 0.01 0.03 0.04 0.06 0.16 0.15 0.18 0.22 0.24 0.27 0.25 0.21 0.14 0.08 0.06 0.07 0.10 0.14 0.19 0.26 0.34 0.36 0.29 0.24 0.18 0.12 0.07 0.06 0.06 0.07 0.06
0.17 0.13 0.07 0.05 0.04 0.03 0.02 0.00 0.00 0.00 0.00 0.00 0.00 0.01 0.02 0.04 0.10 0.12 0.16 0.25 0.35 0.31 0.35 0.37 0.30 0.19 0.15 0.14 0.13 0.16 0.18 0.20 0.25 0.29 0.28 0.28 0.25 0.20 0.17 0.14 0.14 0.11 0.08
0.24 0.18 0.13 0.09 0.06 0.04 0.03 0.01 0.00 0.00 0.00 0.00 0.00 0.00 0.01 0.01 0.01 0.02 0.04 0.08 0.20 0.32 0.40 0.41 0.36 0.30 0.24 0.18 0.13 0.11 0.13 0.14 0.17 0.21 0.22 0.23 0.22 0.22 0.21 0.21 0.22 0.20 0.19
0.30 0.32 0.25 0.18 0.12 0.09 0.06 0.04 0.02 0.01 0.00 0.00 0.00 0.00 0.00 0.00 0.00 0.00 0.01 0.02 0.07 0.15 0.28 0.29 0.28 0.30 0.27 0.21 0.15 0.08 0.07 0.08 0.08 0.10 0.14 0.15 0.14 0.15 0.15 0.19 0.23 0.24 0.24
0.49 0.51 0.48 0.40 0.29 0.20 0.12 0.07 0.04 0.02 0.01 0.01 0.00 0.00 0.00 0.00 0.00 0.00 0.01 0.01 0.02 0.05 0.10 0.09 0.09 0.11 0.15 0.17 0.16 0.11 0.06 0.05 0.06 0.07 0.09 0.09 0.07 0.08 0.09 0.13 0.15 0.18 0.20
0.93 0.97 0.86 0.78 0.65 0.45 0.32 0.20 0.15 0.10 0.06 0.04 0.02 0.02 0.01 0.00 0.00 0.00 0.01 0.01 0.01 0.01 0.02 0.02 0.05 0.04 0.04 0.07 0.08 0.08 0.10 0.08 0.07 0.05 0.05 0.06 0.05 0.04 0.05 0.08 0.10 0.12 0.16
1.31 1.43 1.32 1.22 1.03 0.81 0.68 0.57 0.57 0.52 0.33 0.12 0.12 0.10 0.04 0.01 0.01 0.01 0.01 0.01 0.02 0.02 0.01 0.01 0.02 0.05 0.03 0.01 0.02 0.05 0.10 0.13 0.12 0.09 0.05 0.04 0.03 0.03 0.03 0.04 0.07 0.10 0.12
1.26 1.37 1.53 1.48 1.25 1.14 1.16 1.10 1.19 1.18 0.77 0.35 0.33 0.39 0.27 0.18 0.06 0.02 0.02 0.02 0.02 0.04 0.03 0.02 0.01 0.02 0.02 0.02 0.01 0.02 0.04 0.08 0.11 0.08 0.05 0.04 0.04 0.02 0.02 0.02 0.03 0.06 0.09
1.24 1.30 1.43 1.52 1.40 1.35 1.35 1.37 1.53 1.74 1.39 0.88 0.61 0.66 0.58 0.54 0.35 0.10 0.04 0.04 0.04 0.03 0.04 0.04 0.03 0.04 0.03 0.03 0.02 0.01 0.01 0.02 0.05 0.04 0.04 0.04 0.05 0.04 0.04 0.04 0.05 0.07 0.09
1.16 1.20 1.29 1.39 1.45 1.40 1.44 1.41 1.37 1.66 1.78 1.43 1.10 0.81 0.62 0.55 0.52 0.40 0.17 0.07 0.07 0.05 0.05 0.05 0.04 0.04 0.04 0.04 0.05 0.04 0.02 0.01 0.02 0.03 0.03 0.05 0.06 0.08 0.07 0.09 0.10 0.10 0.09
1.28 1.25 1.35 1.38 1.35 1.36 1.41 1.59 1.65 1.78 1.86 1.70 1.50 1.28 1.09 0.88 0.57 0.58 0.56 0.30 0.15 0.10 0.06 0.05 0.05 0.04 0.03 0.03 0.07 0.06 0.04 0.01 0.01 0.03 0.04 0.04 0.05 0.06 0.08 0.10 0.10 0.10 0.09
1.36 1.40 1.45 1.40 1.31 1.30 1.36 1.51 1.68 1.79 1.92 1.94 1.68 1.40 1.28 1.13 1.01 0.88 0.70 0.59 0.42 0.21 0.10 0.07 0.06 0.05 0.05 0.07 0.09 0.15 0.07 0.02 0.01 0.02 0.04 0.05 0.04 0.03 0.04 0.07 0.08 0.08 0.08
1.23 1.26 1.35 1.45 1.47 1.44 1.51 1.58 1.65 1.56 1.67 1.89 1.73 1.49 1.33 1.12 1.04 1.03 0.89 0.70 0.58 0.30 0.14 0.09 0.06 0.06 0.06 0.05 0.11 0.17 0.07 0.02 0.01 0.02 0.03 0.04 0.03 0.03 0.03 0.03 0.04 0.04 0.04
1.15 1.09 1.10 1.20 1.34 1.43 1.39 1.38 1.33 1.26 1.32 1.47 1.48 1.51 1.49 1.27 1.07 0.94 0.87 0.82 0.68 0.55 0.35 0.21 0.09 0.07 0.05 0.04 0.07 0.10 0.04 0.04 0.02 0.02 0.03 0.03 0.03 0.03 0.03 0.03 0.03 0.03 0.03
0.87 0.82 0.81 0.82 0.90 0.94 0.93 0.98 1.04 1.09 1.07 1.15 1.23 1.30 1.40 1.42 1.28 1.04 0.93 0.86 0.78 0.70 0.63 0.49 0.26 0.11 0.08 0.06 0.06 0.04 0.03 0.06 0.05 0.03 0.03 0.03 0.03 0.02 0.03 0.03 0.02 0.02 0.02
0.70 0.67 0.64 0.60 0.57 0.53 0.55 0.65 0.75 0.83 0.85 0.93 1.03 1.09 1.12 1.17 1.29 1.21 1.04 0.97 0.88 0.75 0.66 0.53 0.43 0.22 0.18 0.13 0.08 0.05 0.05 0.07 0.05 0.04 0.03 0.03 0.03 0.02 0.02 0.02 0.02 0.02 0.01
0.66 0.60 0.56 0.56 0.60 0.57 0.53 0.56 0.56 0.56 0.59 0.64 0.69 0.77 0.89 1.09 1.33 1.31 1.23 1.09 0.99 0.89 0.74 0.62 0.45 0.28 0.25 0.22 0.18 0.10 0.06 0.06 0.05 0.04 0.03 0.02 0.02 0.01 0.01 0.01 0.01 0.01 0.01
0.49 0.47 0.49 0.48 0.48 0.50 0.50 0.54 0.56 0.55 0.52 0.53 0.54 0.58 0.67 0.92 1.20 1.33 1.38 1.28 1.12 1.01 0.97 0.87 0.62 0.39 0.32 0.35 0.37 0.30 0.18 0.14 0.12 0.10 0.09 0.06 0.04 0.03 0.02 0.02 0.02 0.02 0.02
0.41 0.39 0.45 0.44 0.46 0.49 0.50 0.51 0.52 0.55 0.56 0.57 0.59 0.59 0.57 0.68 0.89 1.07 1.19 1.23 1.16 1.11 1.13 0.99 0.77 0.58 0.48 0.38 0.36 0.32 0.28 0.28 0.22 0.20 0.24 0.24 0.18 0.13 0.10 0.07 0.06 0.05 0.04
0.45 0.49 0.57 0.59 0.53 0.48 0.48 0.54 0.53 0.51 0.51 0.52 0.52 0.53 0.52 0.50 0.60 0.73 0.87 1.00 1.12 1.23 1.26 1.18 0.97 0.70 0.63 0.48 0.39 0.39 0.40 0.41 0.37 0.29 0.27 0.30 0.31 0.26 0.20 0.17 0.15 0.12 0.11
0.55 0.54 0.59 0.67 0.75 0.70 0.65 0.69 0.62 0.56 0.53 0.50 0.48 0.44 0.44 0.42 0.41 0.48 0.54 0.74 1.02 1.22 1.28 1.27 1.17 0.90 0.68 0.54 0.39 0.40 0.44 0.49 0.48 0.47 0.49 0.43 0.41 0.39 0.38 0.35 0.32 0.29 0.25
0.46 0.45 0.47 0.53 0.62 0.65 0.82 0.74 0.54 0.47 0.48 0.48 0.49 0.46 0.43 0.34 0.31 0.34 0.37 0.44 0.63 0.81 0.97 1.02 1.02 0.88 0.73 0.61 0.53 0.47 0.39 0.34 0.34 0.41 0.46 0.52 0.52 0.49 0.54 0.53 0.55 0.58 0.52
0.40 0.37 0.36 0.35 0.41 0.55 0.60 0.42 0.38 0.38 0.43 0.46 0.50 0.51 0.45 0.37 0.34 0.35 0.33 0.32 0.34 0.41 0.51 0.67 0.77 0.79 0.84 0.71 0.58 0.48 0.43 0.38 0.34 0.36 0.36 0.41 0.46 0.51 0.58 0.59 0.60 0.60 0.57
0.30 0.29 0.35 0.42 0.43 0.44 0.46 0.35 0.32 0.37 0.46 0.49 0.46 0.42 0.45 0.44 0.40 0.41 0.34 0.36 0.35 0.36 0.39 0.36 0.48 0.67 0.78 0.87 0.77 0.61 0.53 0.44 0.38 0.33 0.30 0.30 0.32 0.36 0.39 0.41 0.43 0.39 0.37
0.33 0.36 0.47 0.53 0.46 0.38 0.38 0.35 0.38 0.44 0.52 0.58 0.52 0.45 0.46 0.48 0.57 0.53 0.41 0.44 0.43 0.41 0.40 0.45 0.50 0.52 0.54 0.61 0.66 0.62 0.56 0.48 0.40 0.35 0.34 0.31 0.27 0.23 0.20 0.20 0.20 0.20 0.18
0.30 0.37 0.38 0.34 0.35 0.40 0.43 0.37 0.44 0.54 0.59 0.67 0.64 0.57 0.66 0.59 0.57 0.49 0.39 0.52 0.55 0.43 0.37 0.41 0.39 0.35 0.33 0.36 0.42 0.48 0.58 0.58 0.50 0.42 0.34 0.28 0.28 0.25 0.22 0.17 0.13 0.11 0.09

GEFSMA_prec_meanprecacc_060.txt.gz
Total_Precipitation_Accumulation
0.35 0.28 0.19 0.15 0.11 0.09 0.05 0.02 0.01 0.01 0.01 0.02 0.05 0.08 0.09 0.14 0.23 0.21 0.21 0.25 0.27 0.30 0.27 0.22 0.14 0.08 0.07 0.07 0.10 0.15 0.20 0.27 0.34 0.37 0.31 0.25 0.19 0.13 0.08 0.06 0.06 0.08 0.07
0.41 0.32 0.23 0.19 0.17 0.14 0.13 0.06 0.02 0.02 0.01 0.02 0.02 0.04 0.07 0.11 0.17 0.17 0.18 0.27 0.36 0.33 0.36 0.38 0.30 0.20 0.16 0.14 0.14 0.17 0.19 0.21 0.25 0.29 0.28 0.29 0.26 0.21 0.17 0.15 0.15 0.12 0.09
0.46 0.42 0.34 0.28 0.24 0.22 0.18 0.14 0.07 0.04 0.03 0.02 0.01 0.01 0.02 0.04 0.04 0.06 0.06 0.08 0.20 0.33 0.40 0.42 0.36 0.30 0.24 0.19 0.14 0.12 0.13 0.14 0.17 0.21 0.23 0.24 0.23 0.22 0.21 0.21 0.23 0.21 0.19
0.45 0.50 0.46 0.39 0.31 0.29 0.27 0.23 0.13 0.08 0.04 0.02 0.01 0.00 0.01 0.01 0.02 0.03 0.03 0.03 0.07 0.15 0.28 0.29 0.28 0.30 0.27 0.21 0.15 0.08 0.08 0.09 0.09 0.11 0.14 0.16 0.15 0.15 0.15 0.19 0.24 0.25 0.25
0.64 0.69 0.70 0.63 0.53 0.44 0.35 0.24 0.16 0.10 0.05 0.04 0.02 0.01 0.00 0.01 0.01 0.02 0.02 0.02 0.02 0.05 0.11 0.09 0.09 0.11 0.15 0.17 0.17 0.11 0.07 0.06 0.07 0.08 0.09 0.09 0.08 0.08 0.10 0.14 0.15 0.18 0.20
1.06 1.12 1.04 1.01 0.93 0.69 0.53 0.37 0.29 0.21 0.13 0.09 0.06 0.04 0.02 0.02 0.02 0.02 0.02 0.02 0.02 0.02 0.02 0.02 0.05 0.04 0.05 0.08 0.09 0.09 0.10 0.09 0.07 0.06 0.06 0.06 0.05 0.05 0.05 0.08 0.10 0.12 0.16
1.41 1.55 1.45 1.40 1.27 1.04 0.89 0.78 0.79 0.71 0.45 0.20 0.20 0.16 0.08 0.04 0.04 0.04 0.02 0.02 0.03 0.04 0.02 0.01 0.02 0.05 0.03 0.02 0.03 0.06 0.11 0.14 0.12 0.09 0.06 0.05 0.03 0.03 0.03 0.05 0.07 0.10 0.12
1.34 1.46 1.65 1.63 1.45 1.33 1.36 1.31 1.42 1.41 0.93 0.47 0.43 0.48 0.33 0.23 0.10 0.06 0.04 0.03 0.04 0.06 0.05 0.03 0.02 0.02 0.03 0.02 0.01 0.02 0.05 0.09 0.11 0.09 0.06 0.05 0.04 0.02 0.02 0.02 0.03 0.06 0.09
1.30 1.38 1.53 1.65 1.58 1.54 1.53 1.55 1.72 1.94 1.58 1.03 0.71 0.76 0.63 0.58 0.39 0.14 0.07 0.07 0.07 0.06 0.07 0.07 0.06 0.06 0.06 0.05 0.03 0.01 0.01 0.02 0.05 0.05 0.05 0.05 0.05 0.04 0.04 0.04 0.05 0.07 0.09
1.21 1.27 1.39 1.51 1.59 1.56 1.59 1.57 1.52 1.83 1.96 1.59 1.24 0.90 0.67 0.59 0.54 0.42 0.21 0.13 0.13 0.10 0.09 0.09 0.07 0.07 0.09 0.09 0.09 0.06 0.04 0.02 0.03 0.04 0.04 0.05 0.07 0.08 0.08 0.09 0.10 0.10 0.10
1.33 1.31 1.43 1.48 1.48 1.51 1.56 1.75 1.82 1.95 2.01 1.85 1.65 1.41 1.19 0.95 0.61 0.60 0.59 0.37 0.25 0.20 0.15 0.12 0.10 0.10 0.09 0.09 0.13 0.12 0.07 0.03 0.02 0.05 0.08 0.07 0.07 0.08 0.09 0.10 0.11 0.11 0.10
1.40 1.46 1.51 1.48 1.43 1.43 1.51 1.66 1.82 1.93 2.07 2.09 1.83 1.56 1.41 1.24 1.09 0.94 0.73 0.62 0.50 0.34 0.29 0.25 0.19 0.16 0.17 0.18 0.21 0.27 0.13 0.05 0.03 0.05 0.08 0.09 0.08 0.07 0.07 0.08 0.09 0.09 0.09
1.29 1.31 1.42 1.52 1.58 1.58 1.65 1.75 1.83 1.71 1.82 2.03 1.87 1.63 1.46 1.22 1.13 1.11 0.97 0.76 0.64 0.39 0.27 0.26 0.24 0.24 0.24 0.18 0.24 0.32 0.17 0.08 0.04 0.05 0.06 0.07 0.06 0.06 0.07 0.06 0.06 0.06 0.06
1.25 1.18 1.21 1.31 1.44 1.56 1.57 1.57 1.54 1.45 1.52 1.64 1.64 1.68 1.64 1.39 1.17 1.02 0.95 0.91 0.75 0.61 0.42 0.30 0.21 0.19 0.19 0.17 0.21 0.23 0.14 0.12 0.07 0.05 0.05 0.06 0.06 0.05 0.06 0.07 0.06 0.06 0.06
1.02 0.95 0.93 0.94 1.01 1.07 1.09 1.19 1.24 1.30 1.30 1.37 1.44 1.51 1.59 1.58 1.40 1.15 1.04 0.96 0.87 0.75 0.67 0.53 0.31 0.18 0.17 0.16 0.17 0.14 0.12 0.15 0.11 0.07 0.05 0.06 0.07 0.05 0.05 0.05 0.05 0.04 0.04
0.90 0.83 0.81 0.74 0.69 0.65 0.68 0.81 0.94 1.02 1.09 1.22 1.34 1.39 1.40 1.41 1.47 1.35 1.16 1.10 0.99 0.84 0.72 0.58 0.47 0.28 0.24 0.19 0.16 0.13 0.12 0.13 0.10 0.09 0.07 0.09 0.08 0.05 0.03 0.03 0.02 0.02 0.02
0.87 0.79 0.73 0.70 0.75 0.72 0.66 0.70 0.72 0.72 0.78 0.88 0.99 1.07 1.15 1.35 1.57 1.52 1.41 1.26 1.13 1.00 0.83 0.69 0.50 0.33 0.30 0.26 0.23 0.15 0.11 0.12 0.11 0.11 0.11 0.10 0.08 0.06 0.05 0.03 0.02 0.02 0.02
0.60 0.62 0.66 0.61 0.61 0.64 0.63 0.68 0.70 0.69 0.66 0.70 0.75 0.82 0.94 1.19 1.48 1.61 1.62 1.47 1.29 1.14 1.07 0.96 0.69 0.43 0.37 0.40 0.41 0.34 0.23 0.19 0.18 0.16 0.17 0.13 0.10 0.08 0.07 0.05 0.04 0.03 0.02
0.45 0.45 0.53 0.52 0.55 0.60 0.62 0.65 0.66 0.68 0.70 0.74 0.80 0.80 0.80 0.92 1.11 1.27 1.39 1.42 1.34 1.25 1.21 1.05 0.83 0.63 0.52 0.43 0.41 0.36 0.32 0.34 0.29 0.28 0.32 0.32 0.27 0.21 0.16 0.12 0.09 0.07 0.05
0.49 0.53 0.61 0.63 0.59 0.53 0.55 0.62 0.62 0.60 0.62 0.65 0.66 0.68 0.69 0.68 0.77 0.91 1.03 1.14 1.26 1.34 1.33 1.22 1.01 0.74 0.67 0.52 0.44 0.44 0.45 0.47 0.45 0.37 0.36 0.38 0.38 0.32 0.26 0.20 0.17 0.14 0.13
0.56 0.56 0.62 0.70 0.78 0.73 0.69 0.74 0.68 0.64 0.62 0.61 0.61 0.56 0.58 0.57 0.57 0.64 0.69 0.86 1.11 1.29 1.33 1.31 1.21 0.93 0.71 0.57 0.42 0.45 0.51 0.59 0.57 0.55 0.56 0.48 0.45 0.42 0.40 0.37 0.34 0.31 0.26
0.46 0.46 0.48 0.54 0.63 0.67 0.85 0.78 0.59 0.53 0.55 0.58 0.61 0.57 0.54 0.46 0.42 0.45 0.49 0.53 0.70 0.86 1.00 1.05 1.05 0.90 0.75 0.63 0.57 0.51 0.45 0.42 0.42 0.48 0.52 0.57 0.55 0.51 0.56 0.55 0.57 0.60 0.54
0.40 0.37 0.36 0.36 0.41 0.56 0.61 0.44 0.41 0.43 0.50 0.56 0.61 0.61 0.55 0.49 0.45 0.44 0.41 0.38 0.39 0.46 0.56 0.71 0.80 0.81 0.86 0.73 0.61 0.52 0.48 0.43 0.38 0.39 0.40 0.45 0.49 0.52 0.59 0.60 0.61 0.61 0.57
0.30 0.29 0.36 0.42 0.44 0.44 0.47 0.36 0.34 0.41 0.53 0.58 0.55 0.51 0.53 0.52 0.50 0.49 0.39 0.41 0.40 0.42 0.45 0.41 0.53 0.71 0.81 0.90 0.80 0.64 0.58 0.49 0.42 0.37 0.34 0.33 0.33 0.38 0.39 0.42 0.43 0.40 0.37
0.34 0.36 0.47 0.54 0.47 0.39 0.40 0.37 0.41 0.49 0.60 0.68 0.60 0.51 0.53 0.54 0.64 0.59 0.46 0.51 0.49 0.48 0.47 0.52 0.55 0.57 0.59 0.65 0.71 0.65 0.58 0.51 0.44 0.39 0.37 0.32 0.28 0.24 0.21 0.20 0.21 0.21 0.18
0.30 0.37 0.38 0.35 0.36 0.41 0.45 0.39 0.49 0.60 0.68 0.79 0.73 0.64 0.76 0.69 0.64 0.55 0.44 0.57 0.61 0.47 0.42 0.45 0.43 0.40 0.38 0.40 0.47 0.51 0.60 0.61 0.52 0.44 0.35 0.29 0.29 0.26 0.23 0.17 0.13 0.12 0.09

GEFSMA_prec_meanprecacc_066.txt.gz
Total_Precipitation_Accumulation
0.50 0.41 0.30 0.23 0.17 0.14 0.10 0.07 0.04 0.02 0.01 0.03 0.05 0.08 0.09 0.15 0.24 0.24 0.25 0.29 0.33 0.36 0.33 0.26 0.17 0.11 0.09 0.09 0.13 0.16 0.21 0.29 0.36 0.38 0.33 0.29 0.24 0.15 0.09 0.07 0.07 0.09 0.09
0.63 0.53 0.43 0.36 0.29 0.26 0.27 0.18 0.07 0.04 0.02 0.02 0.03 0.05 0.07 0.12 0.18 0.19 0.20 0.29 0.40 0.37 0.41 0.42 0.34 0.22 0.17 0.16 0.17 0.19 0.20 0.22 0.27 0.31 0.30 0.32 0.28 0.23 0.18 0.16 0.16 0.13 0.11
0.66 0.65 0.58 0.48 0.42 0.42 0.39 0.31 0.18 0.10 0.06 0.04 0.02 0.02 0.03 0.06 0.06 0.07 0.06 0.09 0.21 0.35 0.43 0.45 0.39 0.32 0.26 0.21 0.17 0.16 0.16 0.16 0.20 0.23 0.24 0.25 0.24 0.23 0.22 0.21 0.23 0.21 0.20
0.64 0.73 0.68 0.59 0.51 0.53 0.52 0.46 0.32 0.19 0.10 0.06 0.04 0.02 0.03 0.03 0.03 0.04 0.03 0.03 0.07 0.15 0.30 0.32 0.31 0.33 0.29 0.23 0.18 0.11 0.09 0.10 0.10 0.12 0.16 0.17 0.15 0.16 0.16 0.20 0.24 0.26 0.26
0.77 0.87 0.90 0.83 0.75 0.68 0.60 0.47 0.39 0.28 0.15 0.10 0.07 0.05 0.03 0.03 0.04 0.04 0.03 0.03 0.02 0.05 0.11 0.11 0.12 0.13 0.17 0.19 0.18 0.13 0.08 0.07 0.08 0.09 0.10 0.10 0.08 0.08 0.10 0.14 0.16 0.19 0.21
1.12 1.23 1.18 1.18 1.14 0.93 0.77 0.63 0.52 0.42 0.27 0.19 0.14 0.10 0.06 0.05 0.05 0.05 0.04 0.04 0.03 0.02 0.02 0.03 0.07 0.06 0.06 0.09 0.11 0.11 0.11 0.09 0.08 0.07 0.07 0.07 0.06 0.05 0.06 0.09 0.10 0.13 0.17
1.44 1.62 1.55 1.54 1.46 1.25 1.12 1.05 1.09 0.96 0.66 0.35 0.30 0.23 0.13 0.07 0.07 0.07 0.06 0.06 0.05 0.05 0.03 0.01 0.03 0.05 0.04 0.03 0.04 0.08 0.13 0.15 0.14 0.10 0.08 0.06 0.04 0.03 0.04 0.05 0.07 0.10 0.13
1.35 1.48 1.69 1.71 1.57 1.51 1.56 1.53 1.67 1.65 1.16 0.66 0.59 0.60 0.41 0.27 0.13 0.09 0.07 0.06 0.06 0.07 0.05 0.04 0.03 0.03 0.03 0.03 0.02 0.03 0.07 0.12 0.15 0.11 0.08 0.07 0.05 0.03 0.03 0.03 0.04 0.07 0.10
1.31 1.39 1.54 1.67 1.63 1.63 1.65 1.70 1.92 2.16 1.81 1.25 0.90 0.93 0.75 0.64 0.44 0.17 0.09 0.10 0.09 0.07 0.08 0.08 0.07 0.07 0.06 0.05 0.03 0.02 0.03 0.04 0.08 0.07 0.08 0.08 0.07 0.05 0.04 0.05 0.06 0.08 0.09
1.22 1.27 1.40 1.53 1.62 1.60 1.66 1.68 1.70 2.04 2.18 1.82 1.47 1.09 0.81 0.68 0.63 0.48 0.25 0.16 0.17 0.13 0.11 0.11 0.09 0.09 0.10 0.10 0.10 0.07 0.05 0.04 0.05 0.07 0.09 0.10 0.10 0.10 0.09 0.10 0.11 0.11 0.10
1.34 1.33 1.45 1.50 1.50 1.53 1.60 1.83 1.96 2.13 2.19 2.05 1.87 1.65 1.40 1.08 0.69 0.66 0.63 0.41 0.28 0.21 0.17 0.14 0.13 0.13 0.12 0.11 0.15 0.14 0.10 0.05 0.04 0.09 0.14 0.13 0.12 0.11 0.11 0.12 0.12 0.12 0.11
1.42 1.48 1.54 1.51 1.46 1.47 1.55 1.72 1.91 2.06 2.25 2.29 2.05 1.78 1.64 1.43 1.20 1.01 0.77 0.66 0.55 0.38 0.32 0.29 0.23 0.20 0.21 0.22 0.25 0.30 0.15 0.07 0.05 0.08 0.14 0.16 0.13 0.11 0.10 0.11 0.11 0.11 0.11
1.32 1.35 1.45 1.56 1.62 1.63 1.70 1.82 1.90 1.80 1.95 2.19 2.05 1.82 1.65 1.40 1.30 1.24 1.06 0.81 0.68 0.43 0.30 0.29 0.29 0.31 0.32 0.26 0.32 0.41 0.22 0.13 0.08 0.08 0.11 0.12 0.11 0.11 0.11 0.11 0.10 0.09 0.10
1.28 1.21 1.24 1.35 1.49 1.62 1.63 1.64 1.61 1.54 1.63 1.77 1.80 1.86 1.83 1.58 1.35 1.18 1.09 1.02 0.81 0.65 0.45 0.32 0.24 0.24 0.26 0.25 0.31 0.36 0.23 0.18 0.12 0.09 0.10 0.12 0.12 0.10 0.11 0.12 0.12 0.10 0.11
1.05 0.99 0.97 0.99 1.07 1.13 1.17 1.28 1.33 1.39 1.39 1.48 1.57 1.67 1.76 1.77 1.60 1.32 1.20 1.12 1.00 0.84 0.72 0.56 0.34 0.22 0.23 0.23 0.25 0.23 0.23 0.25 0.19 0.13 0.11 0.13 0.13 0.10 0.09 0.10 0.09 0.08 0.08
0.96 0.88 0.84 0.77 0.73 0.70 0.72 0.88 1.03 1.11 1.19 1.31 1.45 1.53 1.54 1.58 1.68 1.55 1.34 1.27 1.15 0.97 0.82 0.66 0.53 0.34 0.31 0.26 0.24 0.19 0.21 0.25 0.19 0.16 0.13 0.14 0.13 0.09 0.07 0.07 0.05 0.04 0.03
0.93 0.87 0.80 0.74 0.79 0.77 0.72 0.76 0.79 0.81 0.87 0.98 1.10 1.19 1.30 1.53 1.78 1.75 1.62 1.45 1.30 1.15 0.94 0.78 0.58 0.40 0.37 0.32 0.29 0.20 0.17 0.19 0.19 0.18 0.16 0.14 0.13 0.12 0.10 0.07 0.04 0.03 0.03
0.64 0.70 0.76 0.69 0.66 0.69 0.68 0.73 0.78 0.79 0.76 0.79 0.87 0.95 1.06 1.33 1.66 1.83 1.85 1.70 1.50 1.33 1.22 1.09 0.80 0.52 0.45 0.47 0.48 0.41 0.29 0.25 0.25 0.24 0.24 0.20 0.16 0.14 0.12 0.09 0.07 0.05 0.04
0.48 0.51 0.58 0.57 0.61 0.65 0.67 0.69 0.71 0.74 0.78 0.82 0.91 0.92 0.90 1.04 1.25 1.46 1.60 1.65 1.60 1.52 1.44 1.24 1.02 0.79 0.65 0.55 0.52 0.45 0.40 0.41 0.36 0.35 0.39 0.39 0.33 0.27 0.23 0.18 0.15 0.11 0.08
0.49 0.55 0.65 0.67 0.62 0.57 0.59 0.66 0.67 0.65 0.67 0.72 0.75 0.79 0.81 0.78 0.88 1.04 1.20 1.33 1.47 1.59 1.59 1.44 1.23 0.95 0.85 0.67 0.55 0.53 0.53 0.54 0.51 0.43 0.42 0.45 0.46 0.41 0.35 0.29 0.24 0.19 0.16
0.56 0.56 0.64 0.72 0.80 0.76 0.72 0.77 0.71 0.67 0.66 0.66 0.68 0.66 0.70 0.68 0.67 0.74 0.81 1.01 1.28 1.48 1.52 1.50 1.39 1.11 0.87 0.71 0.53 0.52 0.58 0.66 0.63 0.59 0.60 0.53 0.50 0.48 0.46 0.43 0.39 0.35 0.29
0.47 0.46 0.48 0.55 0.64 0.68 0.87 0.80 0.62 0.55 0.58 0.63 0.68 0.66 0.65 0.57 0.55 0.57 0.62 0.67 0.86 1.04 1.17 1.20 1.19 1.04 0.87 0.73 0.65 0.58 0.51 0.47 0.49 0.54 0.56 0.62 0.59 0.56 0.61 0.59 0.60 0.63 0.56
0.40 0.37 0.36 0.36 0.41 0.56 0.63 0.46 0.43 0.46 0.55 0.63 0.69 0.69 0.66 0.61 0.59 0.58 0.56 0.54 0.55 0.63 0.73 0.87 0.94 0.92 0.95 0.81 0.69 0.58 0.53 0.48 0.42 0.44 0.45 0.49 0.52 0.56 0.62 0.64 0.64 0.63 0.59
0.30 0.29 0.36 0.43 0.44 0.45 0.49 0.39 0.37 0.45 0.60 0.70 0.67 0.61 0.64 0.65 0.66 0.65 0.55 0.58 0.53 0.54 0.57 0.54 0.65 0.83 0.91 0.98 0.87 0.71 0.65 0.56 0.49 0.43 0.38 0.37 0.36 0.40 0.42 0.44 0.46 0.42 0.38
0.34 0.37 0.47 0.54 0.47 0.39 0.42 0.41 0.45 0.57 0.67 0.75 0.70 0.66 0.68 0.69 0.81 0.76 0.60 0.65 0.61 0.59 0.56 0.62 0.67 0.70 0.71 0.74 0.78 0.72 0.64 0.57 0.50 0.45 0.40 0.36 0.31 0.27 0.24 0.23 0.23 0.23 0.20
0.31 0.38 0.39 0.36 0.36 0.42 0.47 0.43 0.52 0.69 0.78 0.87 0.82 0.78 0.94 0.86 0.81 0.71 0.59 0.68 0.70 0.56 0.50 0.54 0.52 0.49 0.47 0.48 0.55 0.58 0.66 0.66 0.57 0.49 0.38 0.32 0.31 0.28 0.25 0.20 0.15 0.13 0.10

GEFSMA_prec_meanprecacc_072.txt.gz
Total_Precipitation_Accumulation
0.73 0.63 0.50 0.43 0.35 0.31 0.28 0.24 0.17 0.13 0.09 0.06 0.06 0.09 0.10 0.15 0.25 0.28 0.30 0.31 0.35 0.41 0.39 0.31 0.21 0.13 0.12 0.14 0.19 0.22 0.27 0.34 0.41 0.43 0.37 0.31 0.25 0.16 0.10 0.08 0.08 0.10 0.10
0.82 0.74 0.64 0.57 0.47 0.43 0.46 0.38 0.26 0.19 0.14 0.08 0.05 0.07 0.08 0.12 0.18 0.19 0.23 0.32 0.41 0.40 0.45 0.46 0.39 0.26 0.20 0.20 0.21 0.23 0.26 0.29 0.32 0.36 0.34 0.34 0.30 0.24 0.19 0.16 0.16 0.14 0.11
0.76 0.74 0.70 0.64 0.59 0.59 0.59 0.53 0.38 0.26 0.17 0.10 0.05 0.04 0.05 0.07 0.06 0.07 0.08 0.12 0.23 0.37 0.46 0.49 0.43 0.36 0.30 0.24 0.21 0.21 0.21 0.22 0.26 0.27 0.28 0.27 0.25 0.24 0.23 0.22 0.24 0.22 0.21
0.71 0.81 0.77 0.69 0.66 0.69 0.69 0.66 0.50 0.36 0.22 0.14 0.10 0.07 0.06 0.06 0.05 0.05 0.05 0.05 0.10 0.18 0.33 0.35 0.34 0.36 0.33 0.28 0.22 0.15 0.13 0.13 0.14 0.16 0.19 0.19 0.16 0.16 0.16 0.20 0.25 0.27 0.26
0.80 0.93 0.98 0.94 0.88 0.83 0.76 0.67 0.60 0.50 0.35 0.26 0.20 0.14 0.09 0.07 0.08 0.07 0.05 0.04 0.03 0.08 0.15 0.13 0.13 0.15 0.20 0.23 0.23 0.16 0.11 0.09 0.10 0.12 0.12 0.11 0.09 0.09 0.11 0.14 0.16 0.19 0.21
1.14 1.26 1.23 1.25 1.24 1.05 0.94 0.83 0.73 0.63 0.47 0.37 0.31 0.22 0.14 0.11 0.10 0.11 0.08 0.06 0.04 0.03 0.04 0.05 0.09 0.07 0.07 0.11 0.14 0.15 0.15 0.12 0.10 0.10 0.09 0.08 0.06 0.05 0.06 0.09 0.10 0.13 0.17
1.48 1.66 1.59 1.59 1.54 1.35 1.25 1.26 1.34 1.20 0.87 0.54 0.46 0.35 0.22 0.13 0.11 0.12 0.10 0.08 0.06 0.07 0.06 0.03 0.06 0.07 0.05 0.04 0.05 0.10 0.17 0.18 0.16 0.13 0.10 0.08 0.05 0.04 0.04 0.05 0.08 0.11 0.13
1.37 1.51 1.73 1.76 1.63 1.58 1.66 1.65 1.84 1.87 1.39 0.90 0.79 0.78 0.56 0.38 0.19 0.12 0.12 0.10 0.08 0.10 0.07 0.04 0.04 0.04 0.04 0.03 0.02 0.05 0.09 0.16 0.18 0.14 0.11 0.10 0.07 0.04 0.03 0.03 0.04 0.07 0.10
1.31 1.39 1.55 1.69 1.66 1.67 1.71 1.78 2.03 2.33 2.01 1.46 1.13 1.16 0.92 0.77 0.55 0.24 0.13 0.13 0.12 0.11 0.11 0.10 0.08 0.08 0.07 0.06 0.04 0.02 0.03 0.05 0.11 0.12 0.12 0.12 0.09 0.06 0.05 0.05 0.06 0.08 0.10
1.22 1.28 1.41 1.54 1.63 1.62 1.70 1.75 1.80 2.17 2.36 2.03 1.67 1.29 0.97 0.81 0.78 0.59 0.32 0.21 0.21 0.16 0.15 0.13 0.10 0.10 0.10 0.11 0.12 0.07 0.05 0.05 0.06 0.10 0.13 0.15 0.13 0.11 0.10 0.10 0.11 0.11 0.11
1.35 1.33 1.46 1.51 1.51 1.55 1.63 1.88 2.06 2.26 2.35 2.24 2.07 1.85 1.59 1.24 0.82 0.78 0.76 0.51 0.35 0.25 0.19 0.17 0.15 0.14 0.14 0.13 0.18 0.15 0.10 0.06 0.05 0.11 0.17 0.19 0.17 0.14 0.13 0.13 0.12 0.12 0.12
1.43 1.49 1.55 1.52 1.47 1.49 1.57 1.75 1.96 2.15 2.36 2.44 2.24 1.98 1.83 1.63 1.34 1.13 0.89 0.79 0.67 0.46 0.37 0.33 0.26 0.23 0.24 0.25 0.28 0.33 0.16 0.07 0.05 0.09 0.16 0.20 0.18 0.16 0.14 0.13 0.12 0.12 0.12
1.35 1.38 1.48 1.58 1.64 1.65 1.73 1.85 1.95 1.86 2.03 2.30 2.21 2.00 1.84 1.61 1.50 1.43 1.22 0.96 0.84 0.54 0.38 0.34 0.33 0.35 0.34 0.28 0.36 0.46 0.23 0.13 0.08 0.09 0.11 0.13 0.14 0.14 0.15 0.15 0.13 0.12 0.12
1.31 1.24 1.27 1.38 1.51 1.65 1.66 1.68 1.66 1.60 1.70 1.87 1.91 2.01 2.04 1.79 1.57 1.39 1.25 1.17 0.96 0.77 0.56 0.40 0.29 0.28 0.29 0.28 0.36 0.42 0.25 0.20 0.13 0.09 0.11 0.14 0.14 0.12 0.13 0.15 0.15 0.14 0.14
1.07 1.00 1.00 1.02 1.09 1.16 1.20 1.33 1.39 1.46 1.47 1.56 1.65 1.77 1.90 1.96 1.82 1.55 1.40 1.28 1.15 0.98 0.84 0.66 0.42 0.26 0.28 0.28 0.33 0.27 0.27 0.30 0.23 0.15 0.13 0.15 0.14 0.11 0.11 0.11 0.11 0.10 0.10
0.98 0.90 0.86 0.80 0.76 0.73 0.76 0.92 1.09 1.18 1.26 1.39 1.52 1.61 1.64 1.70 1.83 1.74 1.53 1.44 1.29 1.10 0.95 0.76 0.62 0.40 0.37 0.32 0.32 0.25 0.28 0.34 0.25 0.20 0.15 0.15 0.15 0.11 0.09 0.07 0.06 0.04 0.04
0.96 0.93 0.84 0.76 0.82 0.81 0.76 0.80 0.84 0.87 0.94 1.06 1.19 1.28 1.39 1.64 1.92 1.90 1.81 1.66 1.49 1.29 1.06 0.89 0.66 0.46 0.42 0.39 0.35 0.26 0.24 0.26 0.24 0.23 0.20 0.18 0.16 0.14 0.11 0.08 0.05 0.04 0.03
0.66 0.73 0.79 0.72 0.71 0.73 0.72 0.77 0.81 0.82 0.82 0.87 0.95 1.04 1.15 1.44 1.78 1.96 2.02 1.91 1.74 1.54 1.37 1.22 0.90 0.60 0.51 0.54 0.55 0.48 0.35 0.31 0.31 0.32 0.31 0.26 0.21 0.18 0.14 0.10 0.07 0.06 0.04
0.49 0.53 0.60 0.59 0.65 0.70 0.72 0.73 0.74 0.78 0.81 0.87 0.98 1.01 0.99 1.14 1.35 1.56 1.73 1.81 1.80 1.75 1.66 1.42 1.18 0.92 0.76 0.65 0.62 0.55 0.49 0.49 0.44 0.44 0.48 0.47 0.41 0.34 0.27 0.21 0.16 0.12 0.09
0.50 0.56 0.67 0.71 0.66 0.60 0.63 0.72 0.73 0.69 0.70 0.75 0.80 0.85 0.89 0.89 1.01 1.15 1.29 1.44 1.63 1.80 1.84 1.70 1.45 1.18 1.04 0.83 0.71 0.70 0.71 0.70 0.66 0.54 0.52 0.54 0.55 0.49 0.41 0.33 0.27 0.22 0.19
0.56 0.57 0.67 0.78 0.84 0.78 0.74 0.79 0.75 0.71 0.70 0.70 0.72 0.71 0.76 0.76 0.77 0.87 0.92 1.10 1.41 1.64 1.73 1.76 1.66 1.38 1.16 0.95 0.71 0.67 0.73 0.84 0.84 0.78 0.75 0.64 0.59 0.55 0.53 0.48 0.44 0.39 0.33
0.47 0.46 0.49 0.56 0.65 0.70 0.89 0.83 0.64 0.59 0.63 0.68 0.73 0.71 0.71 0.65 0.63 0.65 0.72 0.79 0.99 1.19 1.34 1.40 1.41 1.29 1.15 1.00 0.88 0.79 0.69 0.64 0.67 0.70 0.68 0.73 0.68 0.63 0.67 0.64 0.66 0.68 0.60
0.40 0.37 0.36 0.36 0.42 0.57 0.64 0.48 0.46 0.49 0.59 0.67 0.73 0.74 0.72 0.67 0.68 0.68 0.66 0.65 0.68 0.77 0.90 1.06 1.13 1.10 1.15 1.05 0.91 0.80 0.73 0.64 0.56 0.57 0.57 0.62 0.63 0.66 0.70 0.71 0.71 0.68 0.63
0.30 0.29 0.36 0.43 0.44 0.45 0.50 0.40 0.39 0.48 0.64 0.74 0.72 0.65 0.70 0.72 0.76 0.79 0.69 0.71 0.67 0.67 0.71 0.71 0.84 1.02 1.10 1.19 1.10 0.93 0.84 0.73 0.63 0.56 0.49 0.47 0.45 0.48 0.50 0.52 0.54 0.48 0.42
0.34 0.37 0.48 0.55 0.48 0.40 0.43 0.43 0.47 0.61 0.72 0.79 0.73 0.71 0.76 0.78 0.90 0.92 0.81 0.84 0.79 0.75 0.72 0.79 0.86 0.92 0.95 0.99 1.03 0.94 0.84 0.73 0.64 0.57 0.48 0.43 0.38 0.32 0.29 0.28 0.29 0.28 0.23
0.31 0.38 0.40 0.37 0.37 0.42 0.47 0.45 0.54 0.72 0.83 0.92 0.87 0.84 1.02 0.98 0.93 0.85 0.80 0.90 0.89 0.73 0.64 0.68 0.70 0.72 0.71 0.73 0.79 0.78 0.80 0.79 0.68 0.59 0.46 0.37 0.37 0.33 0.31 0.25 0.19 0.16 0.12